{"data":{"norad_id":60118,"intl_designator":"2024-118F","name":"STARLINK-11177 [DTC]","alt_names":[],"object_type":"PAYLOAD","status":"ACTIVE","operator":null,"country":"US","launch_date":"2024-06-24","launch_site_code":"AFWTR","launch_vehicle":null,"mission":null,"orbit_class":"UNKNOWN","rcs_meters":null,"size_class":null,"mass_kg":null,"dimensions":null,"purposes":["comms"],"wikipedia_slug":null,"has_3d_model":false,"image_url":null,"decayed_at":null,"tle_current":{"epoch":"2026-09-21T16:02:59.665632Z","epoch_age_seconds":81295,"freshness":"FRESH","line1":"1 60118U 24118F   26264.66874613 -.00000108  00000+0  39702-5 0  9998","line2":"2 60118  53.1593 335.1836 0001031  92.9379 267.1757 15.69699619128778","mean_motion":15.69699619,"eccentricity":0.0001031,"inclination_deg":53.1593,"raan_deg":335.1836,"arg_perigee_deg":92.9379,"mean_anomaly_deg":267.1757,"bstar":3.9702e-6,"rev_number":12877,"period_min":91.737296905084,"perigee_km":359.06178021644,"apogee_km":360.45113384728,"semimajor_km":6737.8934570319,"source":"CELESTRAK","updated_at":"2026-09-22T09:00:49.155493Z"}}}